Search for airport 
image banner adimage banner ad
image banner ad

SVVX - Melia Caribe

Located in Caraballeda, Venezuela

ICAO - SVVX, IATA -

Data provided by Airmate  

General information

Coordinates: N10°37'10" W66°58'10"
Elevation is 621 feet MSL.
 
View others Airports in Bolívar

Operational data

Open for public use
Current time UTC:
Current local time:
METAR: SVMI 201400Z 14003KT 9999 FEW016 30/24 Q1011
TAF: TAF SVMI 201000Z 2012/2112 00000KT 9999 FEW016 TX34/2018Z TN24/2008Z BECMG 2015/2020 05006KT 9999 SCT016 FM202100 09006KT 9999 SCT016 SCT070
View NOTAMs / SUP AIP / TFR affecting this airport [VIEW]
Communications frequencies: [VIEW]

Runways:

Airport contact information

Address: Caraballeda Venezuela

Satellite view of SVVX